Dewpoint
68 68 69 69 69 69 69 69 69 69 69 69 69 68 68 68 68 68 68 68 68 68 69 69 69 69 69 69 68 68 68 68 68 67 67 66 66 66 66 65 65 66 66 66 67 67 68 62 57 54 55 56 57 58 58 59 59 58 58 59 61 62 64 67 69 70 71 71 71 71 71 71 70 69 68 68 68 68 67 67 67 66 66 66 65 65 65 65 65 65 65 66 66 66 67 67 67 68 68 68 67 67 67
68 68 69 69 69 69 69 69 69 69 69 68 68 68 68 68 68 68 68 68 68 68 69 69 69 69 69 69 69 68 68 68 68 67 67 67 66 66 66 66 66 66 66 66 67 67 67 59 55 54 55 56 57 58 59 59 59 58 58 59 60 62 63 66 68 69 70 70 70 69 69 69 69 68 68 68 67 67 66 66 66 65 65 65 64 64 64 64 64 64 64 64 65 65 65 66 66 67 67 67 67 67 67
68 68 68 68 68 68 69 69 69 68 68 68 68 68 68 68 68 68 68 68 68 68 69 69 69 69 69 69 69 69 68 68 68 68 67 67 67 66 66 66 66 66 66 66 67 67 66 61 56 54 55 55 56 58 59 59 59 59 59 60 60 62 64 66 67 68 68 68 68 68 68 68 68 67 67 67 66 66 66 65 65 65 64 64 64 64 64 64 63 63 63 63 64 64 64 64 65 65 66 66 66 67 67
68 68 68 68 68 68 68 68 68 68 68 68 68 68 68 68 68 68 68 68 68 68 69 69 69 69 69 69 69 69 69 68 68 68 67 67 67 67 67 66 66 66 66 67 67 66 59 57 55 55 54 54 55 57 59 60 60 60 59 60 61 62 64 65 67 67 68 68 68 68 68 67 67 67 66 66 66 66 65 65 65 64 64 64 64 64 63 63 63 62 62 62 62 62 63 63 64 64 65 65 65 66 66
68 68 68 68 68 68 68 68 68 68 68 68 68 68 68 68 68 68 68 68 68 68 69 69 69 69 69 69 69 69 68 68 68 68 67 67 67 67 67 66 66 66 66 67 67 65 58 56 55 54 54 54 55 56 58 59 60 60 60 61 62 63 65 65 66 67 67 67 67 67 67 67 66 66 66 66 65 65 65 64 64 64 64 64 63 63 63 62 62 62 62 61 61 61 61 62 62 63 64 64 64 65 65
67 68 68 68 68 68 68 68 68 68 68 68 68 68 68 68 68 68 68 68 68 68 68 69 69 69 69 69 69 68 68 68 68 67 67 67 67 67 67 67 66 66 66 66 67 66 60 55 52 53 54 54 54 55 56 59 59 60 60 61 63 64 65 65 65 66 66 66 66 66 66 66 66 66 65 65 65 64 64 64 64 64 63 63 63 62 62 62 62 61 61 61 61 61 60 61 61 61 62 63 64 64 64
67 68 68 68 68 68 68 68 68 68 68 68 68 68 68 68 68 68 68 68 68 68 68 69 69 69 69 69 69 68 68 68 68 68 68 67 67 67 67 66 66 66 66 66 67 66 63 54 52 52 52 54 54 55 55 57 58 59 60 62 64 65 65 65 65 65 66 66 66 66 66 65 65 65 65 64 64 64 64 64 63 63 62 62 62 61 61 61 61 61 61 60 60 60 60 60 60 60 61 62 63 63 64
67 68 68 68 68 68 68 68 68 68 68 68 68 68 68 68 68 68 68 68 67 68 68 68 69 69 69 69 69 68 68 68 68 68 68 67 67 67 67 66 66 66 66 66 66 66 65 56 52 51 51 53 54 55 55 55 57 59 60 62 64 65 65 65 65 65 65 65 65 65 65 65 65 65 64 64 64 64 63 63 63 62 62 61 61 61 61 61 60 60 60 60 60 60 60 59 59 59 60 61 62 62 63
68 68 68 68 68 68 68 68 68 68 68 68 68 68 68 68 68 68 68 68 67 67 67 68 68 69 69 69 69 69 68 68 68 68 68 67 67 67 67 66 66 66 66 66 66 66 66 58 53 51 51 52 53 54 55 55 56 58 61 63 64 64 65 65 64 64 65 65 65 65 65 65 65 64 64 64 64 63 63 63 62 62 61 61 60 60 60 60 60 60 60 60 60 60 59 59 59 59 59 60 61 62 62
68 68 68 68 68 68 68 68 68 68 68 68 68 68 68 68 68 68 68 67 67 67 67 67 67 68 68 69 69 69 68 68 68 68 67 67 67 67 67 66 66 66 66 66 66 66 67 59 53 50 51 51 52 54 56 55 56 59 62 64 65 65 65 65 64 64 64 64 64 64 65 65 64 64 64 64 64 63 63 62 62 61 61 60 60 60 59 60 60 60 60 60 60 59 59 59 59 59 59 59 60 61 62
68 68 68 68 68 68 68 68 68 68 68 68 68 68 68 68 68 68 68 67 67 67 66 66 66 67 68 68 68 68 68 68 68 68 67 67 67 67 66 66 66 65 65 65 65 65 66 58 53 50 50 50 52 54 55 55 57 59 62 64 65 65 65 65 64 64 64 64 64 64 64 64 64 64 64 64 63 63 63 62 62 61 60 60 59 59 59 59 59 59 59 60 60 59 59 59 59 59 59 59 60 60 61
68 68 68 67 67 67 67 68 68 68 68 68 68 68 68 68 68 68 68 67 67 67 66 65 65 65 66 67 67 68 68 68 68 67 67 67 67 66 66 66 65 65 65 65 65 65 64 55 51 50 49 49 51 53 55 55 56 58 61 64 65 65 65 65 64 64 64 64 64 64 64 64 64 64 64 63 63 63 62 62 61 61 60 60 59 59 59 59 59 59 59 59 59 59 59 59 59 59 59 59 59 60 60
68 68 67 67 67 67 67 67 67 67 68 68 68 68 68 68 67 67 67 67 67 67 66 65 64 64 64 65 65 66 67 67 67 67 66 66 66 66 65 65 64 64 64 64 64 63 60 52 49 49 48 49 50 52 54 54 55 57 60 63 64 65 65 65 64 64 64 64 64 64 64 64 64 64 64 63 63 63 62 62 61 60 60 59 59 59 59 59 59 59 59 59 59 59 59 59 59 59 59 59 59 59 60
68 68 67 67 67 67 67 67 67 67 67 67 68 68 68 68 67 67 67 67 67 67 66 65 64 63 63 63 63 64 64 64 65 65 65 65 65 65 64 64 64 64 64 63 62 58 53 50 49 49 49 49 50 52 55 54 55 57 61 63 64 64 64 65 65 64 64 64 64 64 64 64 64 64 63 63 63 62 62 61 61 60 60 59 59 59 59 59 59 59 59 59 59 59 59 59 59 59 59 59 59 59 59
67 67 68 68 68 68 67 67 67 67 67 67 67 68 68 67 67 67 67 67 67 66 66 65 64 63 62 61 61 61 62 62 63 63 64 64 64 64 64 63 63 63 63 61 58 55 51 50 49 49 49 49 50 51 53 52 55 59 62 63 63 64 64 65 65 64 64 64 64 64 64 64 64 64 63 63 63 62 62 61 60 60 60 59 59 59 58 58 59 59 59 59 59 59 59 59 59 59 59 59 59 59 59
65 66 67 68 68 68 68 67 67 67 67 67 67 67 67 67 67 67 67 67 67 66 66 65 64 63 62 61 60 60 59 59 59 60 60 61 61 62 62 62 62 61 60 59 56 52 50 50 49 49 50 49 49 50 51 51 55 60 63 63 63 63 64 64 65 64 64 64 64 64 64 64 64 64 63 63 63 62 62 61 60 60 59 59 59 59 58 58 58 59 59 59 59 59 59 59 59 59 59 59 59 59 59
64 65 67 68 68 68 68 67 67 67 67 67 67 67 67 67 67 67 67 67 66 66 65 65 64 64 63 62 61 59 55 55 55 56 58 59 59 59 59 59 60 59 57 56 54 51 50 49 49 48 48 48 49 50 51 52 56 61 63 63 62 62 63 64 64 65 64 64 64 64 64 64 64 64 63 63 63 62 61 61 60 60 59 59 59 59 58 58 58 58 59 59 59 59 59 59 59 59 59 59 59 59 58
64 66 68 68 68 68 68 68 67 67 67 67 67 67 67 67 67 67 67 67 66 66 65 65 64 64 64 64 62 59 55 53 51 52 54 56 57 57 57 58 57 56 54 53 52 51 50 49 48 48 47 47 48 50 52 54 58 62 62 63 62 62 62 63 64 64 64 64 64 64 64 64 64 64 63 63 63 62 61 61 60 59 59 59 59 58 58 58 58 58 58 59 59 59 59 58 58 58 58 58 58 58 58
65 67 68 68 68 68 68 68 68 67 67 67 67 67 67 67 67 67 67 67 66 66 65 64 64 64 64 64 62 59 56 54 52 51 50 51 54 55 55 54 52 50 50 50 50 50 49 49 48 47 46 47 48 50 52 56 59 61 62 62 62 62 61 62 63 64 64 64 64 64 64 64 64 64 64 63 63 62 62 61 60 59 59 59 59 58 58 58 58 58 58 58 58 58 58 58 58 58 58 58 58 58 58
65 66 68 68 68 68 68 68 68 68 68 67 67 66 66 66 66 67 67 67 66 66 65 65 64 64 63 61 59 58 56 55 55 53 52 50 50 51 51 49 48 47 47 47 47 48 49 48 48 47 46 46 47 50 51 57 60 61 61 62 62 62 61 61 61 62 64 64 64 64 64 64 64 64 64 64 63 62 62 61 60 59 59 59 59 58 58 58 58 58 58 58 58 58 58 58 58 58 58 58 58 58 58
64 65 65 66 67 67 67 67 67 67 67 67 66 65 64 65 65 66 67 66 66 66 66 65 63 61 59 57 56 56 55 55 55 55 54 52 51 50 50 49 48 47 47 46 46 47 48 48 48 47 46 46 46 48 50 57 60 61 61 61 61 61 61 61 61 61 62 63 64 64 64 64 64 64 64 64 63 63 62 61 60 59 59 59 58 58 58 57 57 57 58 58 58 58 58 58 58 58 58 58 58 58 58
63 63 63 64 64 64 64 64 64 65 65 66 65 63 62 62 63 64 65 64 64 64 64 63 60 58 57 55 55 55 55 55 55 55 55 54 53 52 51 50 49 48 47 46 46 46 48 48 48 47 46 46 46 47 50 57 60 60 60 60 60 61 61 61 60 60 60 62 63 64 64 64 64 64 64 64 63 63 62 61 60 59 59 59 58 58 57 57 57 57 57 57 58 58 58 58 58 58 58 58 58 57 57
62 62 61 61 62 62 61 61 61 62 63 64 63 61 59 59 60 61 62 60 60 60 61 59 58 57 56 55 54 54 54 55 55 55 55 54 54 53 52 51 50 49 47 46 46 46 47 47 48 47 47 46 46 47 50 57 60 60 60 59 60 60 61 61 60 60 60 60 61 63 64 64 64 64 64 64 63 63 62 61 60 59 59 59 58 58 57 57 57 57 57 57 57 57 57 57 57 57 57 57 57 57 57
61 61 61 60 60 60 60 59 59 60 61 60 59 59 58 58 58 58 59 58 57 57 58 57 57 57 56 55 55 54 54 54 54 54 54 54 54 54 53 52 51 50 49 47 47 47 47 47 47 47 47 46 46 48 50 57 60 60 59 59 59 60 60 60 60 60 59 59 60 61 62 63 64 64 64 64 63 63 62 61 60 59 59 59 58 57 57 56 56 56 57 57 57 57 57 57 57 57 57 57 57 57 57
61 61 60 60 60 60 60 59 59 60 60 59 59 59 58 57 57 57 57 57 57 57 57 57 57 57 56 55 55 55 54 53 53 53 53 53 53 53 53 52 51 50 49 48 48 47 47 47 46 46 46 46 46 48 51 58 60 59 59 59 59 59 59 59 60 60 60 59 59 59 60 62 63 64 64 64 64 63 63 62 61 60 59 59 58 57 57 56 56 56 56 57 57 57 57 57 57 57 57 57 57 57 56
61 61 60 60 60 60 60 60 60 60 60 60 60 59 59 58 58 58 57 58 57 57 57 57 57 56 56 56 55 55 55 54 54 53 53 52 52 52 53 52 52 51 50 49 48 48 48 47 46 46 46 45 46 48 51 59 60 59 59 59 59 59 59 59 59 60 60 59 59 59 59 60 62 63 64 64 64 64 63 62 61 60 59 59 58 58 57 56 56 56 56 56 57 57 57 57 57 57 57 57 57 56 56
61 61 60 60 60 60 60 60 60 61 60 61 61 60 59 59 58 58 58 58 57 57 56 56 56 56 57 56 56 56 55 55 55 54 53 53 52 52 52 52 52 51 50 49 48 48 47 46 46 45 45 45 46 47 49 56 59 60 59 58 58 58 58 59 59 59 59 59 59 59 59 59 60 62 63 64 64 64 64 63 62 61 60 59 59 58 57 57 56 56 56 56 57 57 57 56 57 57 57 57 56 56 56
61 61 60 60 60 60 59 59 59 59 60 60 61 60 59 58 58 58 58 58 57 56 56 56 55 56 56 56 56 56 56 56 55 55 54 53 52 52 51 51 51 51 50 49 48 47 46 46 45 45 44 45 46 46 47 55 59 60 59 59 58 58 58 58 59 59 59 59 59 59 59 59 59 60 62 63 63 64 64 63 62 61 61 60 59 59 58 57 57 56 56 56 57 57 57 56 56 56 56 56 56 56 55
61 61 61 60 60 59 59 59 59 59 59 60 60 59 59 58 57 57 57 57 57 56 56 55 55 56 56 56 57 56 56 56 56 55 55 54 53 52 51 51 51 50 50 49 48 47 46 46 45 45 45 45 46 46 47 52 56 59 60 59 58 58 58 58 58 59 59 59 59 59 59 59 59 59 60 62 63 64 64 63 63 62 61 61 60 59 59 58 57 57 57 57 57 57 57 56 56 56 56 56 56 56 55
60 61 61 60 59 59 58 58 58 58 59 59 59 58 58 58 57 57 56 56 56 56 56 55 55 55 56 57 57 56 56 57 56 55 55 55 54 52 51 50 50 50 50 49 48 47 46 46 46 45 46 46 46 46 46 49 54 58 60 59 59 58 58 58 58 58 59 59 59 59 59 59 59 59 60 61 62 63 63 63 63 62 62 61 61 60 59 59 58 57 57 57 57 57 57 57 56 56 56 56 56 55 55
59 60 61 60 59 58 58 59 59 59 59 60 59 59 58 58 58 58 57 56 56 55 55 55 55 56 57 57 57 57 57 57 56 55 55 55 54 53 52 50 50 50 49 49 48 47 47 46 46 46 47 47 46 46 46 47 51 56 60 59 59 59 58 58 58 58 58 58 58 58 58 58 59 59 59 60 61 62 63 63 63 63 63 62 62 61 60 59 59 58 57 57 57 57 57 57 57 56 56 56 55 55 55
59 59 60 59 59 58 59 59 59 60 60 60 59 59 59 59 59 59 59 58 57 57 56 57 57 57 57 57 58 58 57 57 56 55 55 55 55 54 53 51 50 49 49 49 48 48 47 47 47 47 48 47 47 46 46 46 48 51 58 59 59 59 59 58 58 58 58 58 58 58 58 58 58 59 59 59 60 61 63 63 64 64 63 63 62 61 61 60 59 59 58 58 58 58 58 57 57 57 57 56 56 56 55
59 59 59 59 58 58 59 59 59 59 60 60 60 60 60 60 59 59 59 59 58 58 58 58 58 57 57 57 58 58 58 57 56 56 56 56 55 55 53 51 50 49 49 48 48 48 48 48 49 49 49 48 47 47 46 46 46 48 53 58 59 59 59 59 58 58 58 58 58 58 58 58 58 59 58 59 59 60 61 62 63 63 63 63 62 61 61 60 60 59 59 58 58 58 58 58 58 58 57 57 56 56 56
59 59 59 58 58 59 59 59 59 59 60 60 60 60 60 59 59 60 59 59 59 59 58 58 58 58 58 57 57 57 57 57 56 56 56 56 56 55 54 53 51 50 50 49 49 49 49 49 50 50 50 49 48 48 47 46 46 47 49 54 57 59 59 59 59 58 58 58 57 57 57 58 58 58 58 58 58 59 59 60 61 62 63 62 62 61 61 60 60 60 59 59 58 58 58 58 58 58 58 58 57 57 56
59 59 58 58 58 59 59 59 59 60 60 60 60 60 60 60 60 60 60 60 59 59 59 58 58 58 58 57 57 57 57 57 56 56 55 55 55 56 55 55 53 52 52 51 50 50 50 50 50 50 50 50 49 49 48 47 47 48 49 52 55 57 59 59 59 59 59 58 57 57 57 57 58 58 59 59 59 59 59 59 60 60 61 61 61 61 60 60 60 60 59 59 59 59 58 59 59 59 58 58 58 57 57
59 58 57 57 58 59 59 59 59 60 60 60 60 60 60 60 60 60 60 60 59 59 59 59 59 58 58 58 57 57 57 57 57 56 56 55 55 56 56 55 55 55 54 54 53 53 52 52 52 52 51 51 51 50 50 50 49 48 49 49 51 53 55 57 58 59 59 59 59 58 58 57 57 58 58 58 59 59 58 59 59 59 59 60 60 61 61 60 60 60 60 59 59 59 59 59 59 59 59 59 58 58 58
58 58 57 57 58 58 59 59 59 60 59 60 60 60 60 60 60 60 60 60 59 59 60 59 59 59 59 58 58 58 58 58 57 57 57 56 56 56 56 56 56 55 55 55 55 54 54 54 54 54 54 53 53 53 52 52 51 50 50 49 49 50 51 51 53 55 59 59 59 59 58 58 57 57 58 58 58 59 58 58 58 58 59 59 59 60 60 60 60 60 60 59 59 59 59 59 59 59 59 59 59 59 58
58 58 58 58 58 58 59 59 60 60 60 60 60 60 60 60 60 60 60 60 59 59 60 59 59 59 59 59 59 58 58 58 58 57 57 57 57 57 57 57 56 56 55 55 55 55 55 55 55 55 55 55 54 54 54 53 53 52 51 50 49 49 49 49 48 50 55 59 59 60 59 58 58 57 57 58 58 58 59 59 58 58 59 59 59 59 60 60 60 60 60 59 59 59 59 59 59 59 58 59 59 59 59
58 58 58 58 58 59 59 60 60 60 60 60 60 60 60 60 60 60 60 60 59 60 59 59 59 59 59 59 59 59 59 58 58 58 58 57 57 57 57 57 57 56 56 56 55 55 55 55 55 55 55 55 55 55 54 54 53 53 52 51 50 49 48 47 47 48 51 55 57 59 60 59 58 57 57 57 58 58 58 58 59 59 59 59 59 59 59 59 59 59 59 59 59 59 59 59 59 58 58 58 59 59 59
59 58 58 59 59 59 60 60 60 61 61 61 61 61 60 60 60 60 60 59 59 59 59 59 59 59 59 59 59 59 59 58 58 58 58 58 57 57 57 57 57 57 56 56 55 55 55 55 55 55 55 55 55 54 54 53 53 53 53 52 51 50 48 48 47 47 48 50 53 56 59 59 59 58 57 57 57 58 58 58 59 59 59 59 59 59 59 59 58 58 59 59 59 59 59 59 58 58 58 58 59 59 60
59 59 59 59 59 60 60 60 60 61 61 61 61 61 60 60 60 60 60 59 59 59 59 59 59 59 58 59 58 58 58 58 58 57 57 57 57 57 57 57 57 57 56 56 56 55 55 55 55 55 55 55 54 53 52 53 53 53 53 52 51 50 49 48 47 47 46 47 49 52 57 59 59 58 58 57 57 57 57 58 58 59 59 59 59 59 59 58 58 58 58 58 58 58 59 59 59 58 58 58 59 59 60
59 59 59 59 60 60 60 60 60 60 61 60 60 60 60 60 60 60 60 59 59 59 59 59 59 58 58 58 57 57 57 57 57 57 57 57 57 57 57 57 57 57 57 57 56 56 56 55 55 55 55 54 54 53 52 52 53 53 52 51 51 50 49 48 47 46 46 46 46 48 53 58 59 59 58 58 57 57 57 57 58 58 59 59 59 58 58 58 58 58 58 58 58 58 59 59 59 59 58 58 58 59 60
60 59 59 60 60 60 60 60 60 60 60 60 60 60 60 60 60 60 59 59 59 59 59 59 59 59 58 58 57 57 56 56 56 56 56 56 56 56 56 56 56 56 56 56 56 56 56 56 56 56 55 55 54 54 53 53 53 52 52 50 50 49 48 47 47 46 46 46 46 46 49 55 58 59 59 58 58 57 57 57 58 58 58 58 58 58 58 58 58 58 58 58 58 58 58 59 59 59 58 58 58 58 59
60 60 60 60 60 60 60 60 61 61 61 60 60 60 60 59 59 59 59 59 59 59 59 59 59 59 58 58 57 57 56 56 56 56 56 56 56 56 56 56 56 55 55 55 55 55 55 55 56 56 55 54 54 54 54 54 53 52 50 49 49 48 47 47 46 46 46 46 46 46 46 49 52 55 58 58 58 58 58 58 58 58 57 57 57 57 57 57 57 57 58 58 58 58 58 58 58 58 58 58 57 57 58
60 60 60 60 60 60 60 60 61 61 62 61 60 60 59 59 59 59 59 59 59 59 59 59 59 59 59 58 57 57 56 56 56 56 56 56 56 56 55 55 55 55 55 55 55 55 55 55 55 55 54 54 53 54 54 53 52 50 49 48 47 46 46 46 46 46 46 46 46 46 47 47 47 49 52 54 55 56 58 58 58 58 57 56 55 55 55 56 56 57 57 57 57 58 58 58 58 58 58 58 57 57 57
61 61 60 60 60 60 60 61 61 62 62 61 61 60 59 59 59 59 59 59 59 59 59 59 59 59 59 58 58 57 57 57 57 57 56 56 56 55 55 55 55 55 55 55 55 55 55 55 55 54 53 53 53 52 52 52 50 49 48 47 46 46 45 46 46 46 45 45 45 46 49 48 46 44 44 46 46 48 52 56 58 58 57 56 55 55 55 55 55 56 56 57 57 57 57 57 57 57 57 58 57 57 57
61 61 61 61 60 60 60 61 62 62 62 61 61 60 59 59 59 59 59 59 59 59 59 59 58 58 58 59 59 58 58 57 57 57 56 56 56 56 56 55 55 55 55 55 55 55 55 55 55 54 53 53 52 50 50 49 48 48 48 47 46 45 45 45 45 45 44 45 45 45 46 44 43 42 42 42 42 43 45 52 56 58 57 56 55 55 54 55 55 56 56 56 56 56 56 56 57 57 57 57 57 57 57
61 61 61 61 61 61 61 61 62 62 62 61 61 60 59 59 59 59 59 59 59 59 59 59 59 58 58 58 58 58 58 58 57 57 56 56 56 56 56 56 56 56 56 55 55 55 56 55 54 54 53 52 51 50 49 48 48 48 48 47 46 45 45 45 44 44 43 44 44 44 43 42 41 41 41 41 42 42 42 46 51 55 57 57 56 55 55 55 55 55 55 55 55 55 55 55 56 56 56 57 57 57 57
61 61 61 61 61 61 61 61 61 62 62 61 61 60 60 59 59 59 59 59 59 59 59 59 59 59 58 58 58 58 58 58 57 57 56 55 55 55 55 55 55 55 56 55 55 55 56 55 54 54 53 52 51 50 49 49 48 48 47 47 46 46 44 44 43 43 43 43 43 43 43 42 41 41 41 42 42 43 43 44 46 49 54 55 56 56 56 55 55 54 53 53 53 53 54 55 55 55 56 56 56 57 57
61 61 61 61 61 61 61 61 61 62 62 62 61 60 60 60 60 59 59 59 59 59 59 60 59 59 59 58 58 58 57 57 57 57 56 55 55 54 54 53 53 54 54 55 56 55 55 55 54 54 53 52 51 50 49 48 48 48 48 47 47 46 44 43 43 43 43 43 44 44 44 44 43 43 43 44 44 44 44 45 45 46 48 50 52 54 54 54 53 52 51 52 52 53 53 54 55 55 55 55 56 56 56
62 61 61 61 61 61 61 61 61 62 62 61 61 61 60 60 60 59 59 59 59 59 59 59 59 59 59 58 58 58 57 57 57 56 55 55 55 55 54 54 54 53 53 53 55 56 55 55 54 53 52 51 50 50 49 49 48 48 48 48 47 46 44 44 43 44 44 44 44 45 46 45 45 45 45 45 45 45 45 45 45 46 46 46 46 47 49 49 50 50 50 51 52 52 53 54 55 55 55 55 55 55 55
62 62 62 61 61 61 61 61 61 61 61 61 61 60 60 60 60 60 60 59 59 59 59 59 59 59 59 59 59 58 58 58 57 56 55 55 55 56 57 55 54 53 51 50 52 55 56 55 54 53 52 51 50 50 49 49 49 48 48 48 47 46 44 45 45 46 46 45 45 45 45 45 46 46 46 46 46 46 46 46 46 46 46 46 46 46 46 46 49 50 51 51 51 52 52 53 54 55 55 55 55 55 55
62 62 62 62 61 62 62 62 62 61 61 61 61 60 60 60 60 60 60 59 59 59 59 59 59 58 58 59 58 58 58 58 57 57 57 56 56 56 57 55 54 52 50 50 50 50 52 53 53 53 52 51 50 50 50 50 49 49 48 48 47 46 44 45 46 47 47 46 46 45 45 45 46 46 46 46 46 46 46 46 46 46 46 45 46 46 45 46 49 51 52 51 51 51 52 53 54 55 55 55 55 55 54
62 62 62 62 62 62 62 62 62 61 61 62 61 61 60 60 60 59 60 59 59 59 59 59 59 59 58 58 57 57 58 58 58 57 57 57 57 56 56 55 54 53 52 51 50 48 47 49 50 52 52 51 51 50 50 50 49 49 49 48 47 46 46 46 47 48 48 47 47 46 46 46 46 46 46 46 46 46 46 46 46 46 46 45 45 45 44 45 48 51 51 51 51 51 51 52 53 54 55 55 55 55 55
62 62 62 62 62 62 62 62 62 62 62 62 62 61 61 60 60 60 60 59 59 59 59 59 59 59 59 58 57 57 58 58 58 57 57 58 58 57 56 55 54 54 53 51 49 47 47 49 50 50 51 51 51 50 50 50 50 49 50 49 47 46 46 47 48 48 48 48 48 48 47 47 46 46 46 46 46 46 47 47 46 46 46 46 45 45 44 46 48 49 47 48 50 50 50 52 52 53 54 54 55 55 55
62 62 62 62 62 62 62 62 62 62 62 63 62 62 61 61 61 60 60 60 60 60 60 59 59 59 59 59 59 58 58 57 57 57 57 57 58 58 58 56 55 53 51 49 47 47 49 52 52 51 51 51 51 51 50 50 50 49 50 50 48 47 47 48 49 50 50 49 48 47 47 48 48 47 47 46 46 46 47 47 46 46 46 46 45 45 44 44 44 44 45 46 47 49 50 51 52 53 53 54 54 55 55
63 62 62 62 62 62 62 62 62 62 62 63 63 63 63 62 62 61 61 61 61 60 61 60 60 60 61 61 60 59 59 58 58 58 58 58 58 58 58 57 56 55 52 50 50 50 53 55 54 52 52 53 53 53 51 50 50 50 50 50 49 48 49 49 50 50 50 50 49 48 47 48 47 47 47 47 47 46 46 46 46 46 46 46 45 44 43 44 44 45 45 46 47 48 50 51 52 53 54 54 54 54 54
63 63 62 62 62 62 63 63 63 63 63 63 63 64 64 63 62 62 61 61 61 61 62 61 62 62 62 62 62 61 60 59 59 59 59 59 58 58 57 58 58 58 58 57 56 55 56 56 55 54 52 53 55 55 54 52 51 50 50 50 50 50 50 50 50 50 50 50 49 49 47 46 46 46 46 46 46 46 46 46 46 46 46 46 45 44 43 44 46 46 46 47 47 48 50 51 52 53 54 54 54 54 54
63 63 63 63 63 63 63 63 63 63 63 63 64 64 64 63 63 62 62 62 62 62 62 62 62 62 63 63 63 62 60 60 60 60 58 58 58 57 57 57 57 58 58 58 58 58 58 57 56 55 53 52 52 54 55 54 53 51 50 50 50 50 50 50 50 50 49 49 49 49 48 46 46 46 46 46 46 46 46 46 46 46 46 46 45 45 45 46 47 47 48 48 48 49 50 51 52 52 53 53 54 54 54
63 63 63 63 63 63 63 63 63 63 64 63 64 64 63 63 63 63 63 63 62 62 62 62 63 63 64 64 63 63 61 60 62 63 60 59 58 58 58 58 57 57 58 57 57 57 58 58 57 56 55 53 51 50 51 53 54 53 52 51 51 51 51 50 50 50 50 49 49 48 47 47 46 46 46 46 46 46 46 47 47 46 46 46 45 45 46 46 46 47 48 47 48 49 50 50 51 52 52 53 53 54 54
63 63 63 63 63 64 64 63 63 63 64 63 64 64 64 63 63 63 64 63 63 63 63 63 64 64 64 64 64 64 63 62 63 64 63 61 60 59 59 58 57 57 57 56 56 55 56 57 57 57 56 55 53 51 50 50 51 53 53 52 52 51 51 51 50 50 50 49 49 48 48 47 47 47 46 46 47 47 47 46 47 47 47 46 46 46 46 46 46 46 46 46 47 48 49 49 50 51 51 52 53 53 54